EW6749 Weather Reports


time (UTC)temp
F
wind
direction
speed
knots
gust
knots
rain 1hr
in
rain 24hr
in
rain mn
in
humidity
%
barometer
mb
20220812001521 80 0.0 2.6 0.00 0.00 0.00 55 1017.5
20220812000521 79 0.0 1.7 0.00 0.00 0.00 56 1017.6
20220811235521 79 0.0 2.6 0.00 0.00 0.00 56 1017.6
20220811234521 78 158 0.9 1.7 0.00 0.00 0.00 57 1017.6
20220811233612 78 135 0.9 2.6 0.00 0.00 0.00 58 1017.6
20220811232546 77 158 0.9 1.7 0.00 0.00 0.00 58 1017.7
20220811231547 77 158 0.9 2.6 0.00 0.00 0.00 58 1017.8
20220811230546 77 135 0.9 2.6 0.00 0.00 0.00 58 1017.9
20220811225546 77 135 0.9 3.5 0.00 0.00 0.00 58 1018.0
20220811224521 77 135 0.9 2.6 0.00 0.00 0.00 58 1018.1
20220811223612 78 135 0.9 2.6 0.00 0.00 0.00 58 1018.1
20220811222637 78 135 1.7 4.3 0.00 0.00 0.00 57 1018.2
20220811221611 78 135 0.9 2.6 0.00 0.00 0.00 58 1018.2
20220811220521 79 158 0.9 2.6 0.00 0.00 0.00 57 1018.3
20220811215521 80 135 0.9 3.5 0.00 0.00 0.00 56 1018.5
20220811214521 80 0.0 0.9 0.00 0.00 0.00 56 1018.5
20220811213521 80 135 0.9 2.6 0.00 0.00 0.00 56 1018.6
20220811212546 81 0.0 1.7 0.00 0.00 0.00 55 1018.7
20220811211521 80 135 0.9 2.6 0.00 0.00 0.00 57 1018.7
20220811210521 80 0.0 2.6 0.00 0.00 0.00 56 1018.9
20220811205636 80 135 0.9 2.6 0.00 0.00 0.00 57 1019.0
20220811204521 80 135 0.9 4.3 0.00 0.00 0.00 57 1019.0
20220811203611 80 135 0.9 4.3 0.00 0.00 0.00 57 1018.9
20220811202521 80 0.0 0.9 0.00 0.00 0.00 57 1019.0
20220811201546 79 135 0.9 3.5 0.00 0.00 0.00 58 1019.0
20220811200521 79 270 0.9 3.5 0.00 0.00 0.00 58 1019.0
20220811195546 80 135 0.9 4.3 0.00 0.00 0.00 57 1019.1
20220811193521 79 0.0 2.6 0.00 0.00 0.00 58 1019.2
20220811192521 79 0.0 0.9 0.00 0.00 0.00 57 1019.3
20220811191521 80 0.0 1.7 0.00 0.00 0.00 57 1019.5
20220811190547 79 0.0 1.7 0.00 0.00 0.00 57 1019.4
20220811185546 78 0.0 1.7 0.00 0.00 0.00 57 1019.5
20220811184520 78 0.0 1.7 0.00 0.00 0.00 57 1019.7
20220811183546 77 0.0 1.7 0.00 0.00 0.00 59 1019.7
20220811182521 76 0.0 1.7 0.00 0.00 0.00 60 1019.7
20220811181546 75 0.0 0.9 0.00 0.00 0.00 62 1019.8
20220811180521 74 0.0 0.9 0.00 0.00 0.00 63 1019.6
20220811175545 74 0.0 0.9 0.00 0.00 0.00 63 1019.7
20220811174636 73 0.0 1.7 0.00 0.00 0.00 65 1019.8
20220811173547 72 0.0 0.9 0.00 0.00 0.00 66 1019.8
20220811172520 70 0.0 0.0 0.00 0.00 0.00 70 1019.8
20220811171545 71 0.0 0.9 0.00 0.00 0.00 69 1019.7
20220811170521 69 0.0 0.9 0.00 0.00 0.00 71 1019.7
20220811165611 69 0.0 0.9 0.00 0.00 0.00 73 1019.8
20220811164521 67 0.0 0.9 0.00 0.00 0.00 75 1019.8
20220811163546 65 0.0 0.9 0.00 0.00 0.00 79 1019.9
20220811162611 65 0.0 1.7 0.00 0.00 0.00 79 1019.9
20220811161520 64 0.0 0.9 0.00 0.00 0.00 81 1019.9
20220811160520 63 0.0 0.9 0.00 0.00 0.00 82 1019.9
20220811155611 63 0.0 0.9 0.00 0.00 0.00 83 1020.0
20220811154520 62 0.0 0.0 0.00 0.00 0.00 83 1019.9
20220811153611 62 0.0 0.0 0.00 0.00 0.00 84 1019.9
20220811152521 61 0.0 0.0 0.00 0.00 0.00 84 1019.9
20220811151520 61 0.0 0.0 0.00 0.00 0.00 84 1019.9
20220811150520 61 0.0 0.0 0.00 0.00 0.00 85 1019.8
20220811145520 60 0.0 0.0 0.00 0.00 0.00 86 1019.6
20220811144726 60 0.0 0.0 0.00 0.00 0.00 88 1019.4
20220811143547 60 0.0 0.0 0.00 0.00 0.00 88 1019.4
20220811142522 60 0.0 0.0 0.00 0.00 0.00 89 1019.4
20220811141636 59 0.0 0.0 0.00 0.00 0.00 90 1019.3
20220811140547 59 0.0 0.0 0.00 0.00 0.00 90 1019.3
20220811135522 59 0.0 0.0 0.00 0.00 0.00 91 1019.2
20220811134522 58 0.0 0.0 0.00 0.00 0.00 91 1019.2
20220811133522 58 0.0 0.0 0.00 0.00 0.00 91 1019.1
20220811132547 58 0.0 0.0 0.00 0.00 0.00 91 1018.9
20220811131522 58 0.0 0.0 0.00 0.00 0.00 91 1018.9
20220811130522 58 0.0 0.0 0.00 0.00 0.00 91 1018.8
20220811125703 58 0.0 0.0 0.00 0.00 0.00 90 1018.8
20220811124547 57 0.0 0.0 0.00 0.00 0.00 89 1018.6
20220811123522 57 0.0 0.0 0.00 0.00 0.00 89 1018.7
20220811122613 57 0.0 0.0 0.00 0.00 0.00 88 1018.6
20220811121522 57 0.0 0.0 0.00 0.00 0.00 88 1018.5
20220811120547 57 0.0 0.0 0.00 0.00 0.00 88 1018.6
20220811115522 57 0.0 0.0 0.00 0.00 0.00 88 1018.6
20220811114638 57 0.0 0.0 0.00 0.00 0.00 88 1018.5
20220811113612 57 0.0 0.0 0.00 0.00 0.00 87 1018.5
20220811112522 57 0.0 0.0 0.00 0.00 0.00 87 1018.5
20220811111547 58 0.0 0.0 0.00 0.00 0.00 88 1018.5
20220811110522 58 0.0 0.0 0.00 0.00 0.00 87 1018.5
20220811105547 58 0.0 0.0 0.00 0.00 0.00 87 1018.5
20220811104612 59 0.0 0.0 0.00 0.00 0.00 88 1018.6
20220811104047 59 0.0 0.0 0.00 0.00 0.00 88 1018.7
20220811103022 59 0.0 0.0 0.00 0.00 0.00 88 1018.8
20220811102022 60 0.0 0.0 0.00 0.00 0.00 87 1018.9
20220811101022 60 0.0 0.9 0.00 0.00 0.00 87 1019.0
20220811100022 60 0.0 0.9 0.00 0.00 0.00 87 1019.0
20220811095022 60 0.0 0.0 0.00 0.00 0.00 86 1019.0
20220811094047 60 0.0 0.9 0.00 0.00 0.00 86 1019.2
20220811093022 60 0.0 0.0 0.00 0.00 0.00 85 1019.2
20220811092047 60 0.0 0.9 0.00 0.00 0.00 85 1019.2
20220811091022 60 0.0 0.9 0.00 0.00 0.00 84 1019.3
20220811090047 60 0.0 0.0 0.00 0.00 0.00 83 1019.3
20220811085112 60 0.0 0.9 0.00 0.00 0.00 84 1019.4
20220811084022 60 0.0 0.9 0.00 0.00 0.00 85 1019.4
20220811083022 60 0.0 0.0 0.00 0.00 0.00 85 1019.5
20220811082023 60 0.0 0.0 0.00 0.00 0.00 83 1019.4
20220811081047 60 0.0 0.0 0.00 0.00 0.00 83 1019.5
20220811080112 61 0.0 0.9 0.00 0.00 0.00 83 1019.6
20220811075202 61 0.0 0.0 0.00 0.00 0.00 83 1019.7
20220811073021 61 0.0 0.0 0.00 0.00 0.00 83 1019.6
20220811072021 61 0.0 0.0 0.00 0.00 0.00 83 1019.6
20220811071021 62 0.0 0.0 0.00 0.00 0.00 82 1019.5
20220811070021 62 0.0 0.9 0.00 0.00 0.00 81 1019.4
20220811065022 62 0.0 0.9 0.00 0.00 0.00 82 1019.4
20220811064047 62 0.0 0.0 0.00 0.00 0.00 81 1019.4
20220811063022 62 0.0 0.0 0.00 0.00 0.00 81 1019.4
20220811062047 62 0.0 0.0 0.00 0.00 0.00 80 1019.5
20220811061138 63 0.0 0.0 0.00 0.00 0.00 80 1019.4
20220811060022 63 0.0 0.0 0.00 0.00 0.00 79 1019.4
20220811055112 63 0.0 0.0 0.00 0.00 0.00 78 1019.5
20220811054022 63 0.0 0.0 0.00 0.00 0.00 78 1019.5
20220811053022 63 0.0 0.0 0.00 0.00 0.00 78 1019.4
20220811052138 64 0.0 0.0 0.00 0.00 0.00 77 1019.4
20220811051022 64 0.0 0.0 0.00 0.00 0.00 77 1019.4
20220811050047 64 0.0 0.0 0.00 0.00 0.00 77 1019.3
20220811045047 65 0.0 0.0 0.00 0.00 0.00 75 1019.2
20220811044138 66 0.0 0.0 0.00 0.00 0.00 74 1019.1
20220811043112 66 0.0 0.0 0.00 0.00 0.00 74 1019.0
20220811042022 67 0.0 0.0 0.00 0.00 0.00 73 1019.0
20220811041112 68 0.0 0.0 0.00 0.00 0.00 73 1019.0
20220811040052 68 0.0 0.0 0.00 0.00 0.00 72 1018.8
20220811035137 69 0.0 0.0 0.00 0.00 0.00 72 1018.7
20220811034047 69 0.0 0.0 0.00 0.00 0.00 71 1018.6
20220811033047 70 0.0 0.0 0.00 0.00 0.00 70 1018.5
20220811032137 70 0.0 0.9 0.00 0.00 0.00 69 1018.4
20220811031022 71 0.0 0.0 0.00 0.00 0.00 68 1018.4
20220811030047 72 0.0 0.0 0.00 0.00 0.00 67 1018.3
20220811025022 72 0.0 0.9 0.00 0.00 0.00 67 1018.3
20220811024022 73 0.0 0.0 0.00 0.00 0.00 66 1018.0
20220811023113 74 0.0 0.9 0.00 0.00 0.00 66 1017.9
20220811022547 74 0.0 0.0 0.00 0.00 0.00 65 1017.9
20220811021522 75 0.0 0.9 0.00 0.00 0.00 64 1017.7
20220811020522 76 0.0 0.9 0.00 0.00 0.00 62 1017.7
20220811015522 77 0.0 0.9 0.00 0.00 0.00 60 1017.6
20220811014522 78 0.0 1.7 0.00 0.00 0.00 59 1017.6
20220811013547 80 0.0 1.7 0.00 0.00 0.00 56 1017.6
20220811012547 81 0.0 3.5 0.00 0.00 0.00 55 1017.6
20220811011522 81 0.0 1.7 0.00 0.00 0.00 55 1017.7
20220811010612 81 0.0 1.7 0.00 0.00 0.00 55 1017.7
20220811005521 80 0.0 1.7 0.00 0.00 0.00 55 1017.6
20220811004547 81 135 0.9 1.7 0.00 0.00 0.00 54 1017.7
20220811003521 81 0.0 2.6 0.00 0.00 0.00 51 1017.7
20220811002521 81 135 0.9 3.5 0.00 0.00 0.00 50 1017.7
20220811001612 81 0.0 1.7 0.00 0.00 0.00 50 1017.7